Location: Newark
(22.3060°N, 114.2134°E)
Time: 04:24:30
(UTC+00:00)

Vanguard 1 Rocket - Pass Details

Date: 02 August 2021
Orbit: 650 x 4226 km, 34.3° (Epoch: 24 September)

Event Time Altitude Azimuth Distance (km) Brightness Sun altitude
Rises 21:13:32 0° 203° (SSW) 7,715 11.7 -9.9°
Reaches altitude 10° 21:19:42 10° 194° (SSW) 7,046 11.6 -8.6°
Maximum altitude 21:40:36 32° 139° (SE) 5,675 11.7 -4.1°
Drops below altitude 10° 21:59:19 10° 85° (E) 6,491 13.6 -0.1°
Sets 22:04:26 0° 76° (ENE) 7,087 15.2 1.0°
